Volver al catálogo

STARLINK-32442

ActivoComunicacionesVLEO
NORAD 61729·PAYLOAD·🇺🇸 United States

Lanzado Oct 30, 2024 desde Cape Canaveral Space Force Station

Loading…

Próximos Pases (próximas 24 horas)

TLE

ActualizadoSource: CelesTrak SupGP

Época: Sep 15, 2026, 02:12 UTC

1 61729C 24196Y   26258.09215278  .00037084  00000+0  10955-2 0  2585
2 61729  53.1587 298.8875 0001277  97.2887 238.3787 15.34376937    18

Sigue STARLINK-32442 en tiempo real con AllMySat

Download on the App Store